Aeroporto :
LOGIN :

Iscrizione | Disclaimer

   EN    FR    IT 

 










Sommario :    VFR   VFR Marginale   IFR   IFR Intensivo   IFR Molto Intensivo
Visibilità : 
Base nubi : 
>= 8 km
>= 3000ft
5 / 8 km
1000 / 3000 ft
1500m / 5 km
500 / 1000 ft
800 / 1500m
200 / 500 ft
< 800m
< 200 ft
Simboli :   Temporali  Nebbia  Neve Forte  Precipitazioni Forti  Vento > 20 kt
SIGMETs :   Varie  Temporali  Ghiacco  Turbolenza  Onda orograficha  Ceneri Vulcaniche






- Altitudine del aeroporto : 239 ft
- Codice IATA : VRN


LIPX - Villafranca Int. Verona

ULTIMO METAR :
  • 051420Z 28008KT 250V310 CAVOK 28/14 Q1005

METARs OBSOLETI :
  • 051350Z 26010KT 9999 FEW050 28/15 Q1005
  • 051320Z 25009KT 220V280 9999 FEW030 27/14 Q1005
  • 051250Z 28008KT 210V330 9999 FEW030 28/15 Q1005
  • 051220Z 25011KT 9999 FEW030 27/14 Q1006
  • 051150Z 25010KT 9999 FEW040 27/15 Q1006

TAF TAF LIPX
Valido dal 05 a 12 ore il 06 a 12 ore UTC


051100Z 0512/0612 26012KT 9999 FEW040
BECMG 0518/0520 09010KT
BECMG 0601/0603 VRB05KT



MetMap, La meteo Aeronautica in un colpo d'occhio ! - Copyright ORBIFLY Dicembre 2007 - Disclaimer

ORBIFLY MET'MAP TEAM :

Programmazione e sviluppo : Alexandra Zaïnal
Concezione : Baudouin d'Aumeries
Aiuto per la programmazione : Marc-Olivier Méhu
Supporto tecnico e logistico : Manuel Goepfert
Aiuto per la traduzione : Arnaldo La Scala

Contatto : metmap@orbifly.com




FONTI E CREDITI :

   NOAA